User: anonymous   Login
Location: Unspecified
(0.0000°N, 0.0000°E)
Time: 18:18:03
(UTC+00:00)
Language:

nSIGHT-1 - Orbit

View from above orbital plane
View from above orbital plane
View from above satellite
View from above satellite

Ground track
Ground track

The orbit data is extracted from the following two-line orbital elements,

1 42726U 98067MF  19139.49171305  .00016578  00000-0  13785-3 0  9998
2 42726  51.6361 103.0607 0006197  61.1933 298.9686 15.70281013113076
Epoch (UTC): 19 May 2019 11:48:04
Eccentricity: 0.0006197
inclination: 51.6361°
perigee height: 354 km
apogee height: 362 km
right ascension of ascending node: 103.0607°
argument of perigee: 61.1933°
revolutions per day: 15.70281013
mean anomaly at epoch: 298.9686°
orbit number at epoch: 11307

The dashed part of the orbit path shows where the satellite is in the earth's shadow,  

DLR